1485082800.35,62289,10.06,74278.5,2.43,-35.59,-35.59,0,*7F
1485082801.57,62290,10.06,74272.5,2.47,-35.47,-35.47,0,*73
1485082802.82,62291,10.06,74278.0,2.45,-35.53,-35.53,0,*70
1485082804.06,62292,10.06,74276.5,2.45,-35.53,-35.53,0,*73
1485082805.28,62293,10.06,74272.5,2.45,-35.53,-35.71,0,*72
1485082806.51,62294,10.06,74276.8,2.45,-36.25,-36.43,0,*75
1485082807.75,62295,10.06,74276.5,2.45,-35.53,-35.53,0,*74
1485082809.01,62296,10.06,74276.3,2.47,-35.83,-35.89,0,*7F
1485082810.26,62297,10.06,74276.0,2.45,-35.53,-35.53,0,*76
1485082811.46,62298,10.06,74274.5,2.45,-35.47,-35.47,0,*79
1485082812.7,62299,10.06,74274.8,2.47,-35.65,-35.71,0,*7F
1485082813.95,62300,10.06,74278.0,2.45,-35.35,-35.35,0,*79
1485082815.16,62301,10.06,74274.5,2.45,-35.89,-36.01,0,*7B
1485082816.39,62302,10.06,74276.5,2.47,-35.71,-35.89,0,*7E
1485082817.59,62303,10.06,74278.3,2.45,-36.01,-36.07,0,*7C
1485082818.79,62304,10.06,74274.3,2.45,-36.07,-36.07,0,*7D
1485082820.05,62305,10.06,74272.3,2.45,-35.83,-35.83,0,*7C
1485082821.31,62306,10.06,74276.0,2.47,-36.31,-36.25,0,*78
1485082822.56,62307,10.06,74274.0,2.45,-36.25,-36.25,0,*7E
1485082823.81,62308,10.06,74272.5,2.45,-35.65,-35.53,0,*74
1485082825.04,62309,10.06,74274.5,2.45,-35.29,-35.35,0,*7D
1485082826.26,62310,10.06,74272.3,2.45,-35.65,-35.71,0,*7D
1485082827.46,62311,10.06,74274.0,2.45,-36.01,-36.07,0,*7F
1485082828.7,62312,10.06,74274.5,2.45,-35.53,-35.65,0,*7F
1485082829.95,62313,10.06,74276.0,2.47,-35.47,-35.35,0,*7C
1485082831.15,62314,10.06,74274.5,2.45,-35.47,-35.47,0,*7C
1485082832.36,62315,10.06,74274.8,2.45,-35.29,-35.29,0,*7D
1485082833.57,62316,10.06,74274.3,2.45,-35.29,-35.29,0,*7E
1485082834.83,62317,10.06,74278.3,2.47,-35.53,-35.65,0,*78
1485082836.1,62318,10.06,74276.3,2.47,-35.65,-35.65,0,*72
1485082837.32,62319,10.06,74276.5,2.47,-35.71,-35.71,0,*73
1485082838.54,62320,10.06,74274.5,2.47,-35.89,-36.07,0,*7C
1485082839.81,62321,10.06,74278.0,2.47,-35.53,-35.65,0,*7D
1485082841.07,62322,10.06,74276.8,2.47,-35.65,-35.53,0,*7E
1485082842.34,62323,10.06,74274.3,2.47,-35.83,-35.89,0,*70
1485082843.6,62324,10.06,74274.5,2.47,-35.83,-35.89,0,*77
1485082844.85,62325,10.06,74274.5,2.49,-35.83,-35.83,0,*72
1485082846.12,62326,10.06,74276.3,2.47,-35.65,-35.65,0,*7F
1485082847.37,62327,10.06,74274.0,2.47,-35.71,-35.65,0,*7B
1485082848.57,62328,10.06,74272.5,2.49,-35.47,-35.59,0,*70
1485082849.83,62329,10.06,74272.8,2.47,-35.53,-35.65,0,*75
1485082851.08,62330,10.06,74272.5,2.49,-35.65,-35.83,0,*7E
1485082852.28,62331,10.06,74274.8,2.45,-36.07,-36.07,0,*7B
1485082853.52,62332,10.06,74276.8,2.47,-35.89,-36.01,0,*79
1485082854.75,62333,10.06,74276.3,2.47,-35.89,-36.01,0,*78
1485082855.99,62334,10.06,74272.5,2.45,-35.53,-35.65,0,*7B
1485082857.22,62335,10.06,74278.5,2.49,-35.29,-35.41,0,*7D
1485082858.47,62336,10.06,74274.8,2.49,-35.07,-35.07,0,*70
1485082859.7,62337,10.06,74272.5,2.49,-35.01,-34.83,0,*7A
1485082860.93,62338,10.06,74272.5,2.49,-35.01,-34.83,0,*75
1485082862.15,62339,10.06,74274.3,2.49,-34.89,-34.83,0,*75
1485082863.39,62340,10.06,74274.0,2.51,-34.89,-34.83,0,*72
1485082864.66,62341,10.06,74274.3,2.49,-34.83,-34.65,0,*78
1485082865.91,62342,10.06,74272.8,2.51,-34.83,-34.71,0,*77
1485082867.19,62343,10.06,74276.0,2.51,-35.07,-35.07,0,*7B
1485082868.41,62344,10.06,74276.3,2.53,-35.07,-35.17,0,*7F
1485082869.66,62345,10.06,74274.8,2.53,-35.23,-35.23,0,*7F
1485082870.86,62346,10.06,74270.5,2.53,-35.17,-35.17,0,*7C
1485082872.08,62347,10.06,74274.3,2.53,-35.23,-35.17,0,*7A
1485082873.27,62348,10.06,74274.8,2.57,-35.17,-35.17,0,*76
1485082874.52,62349,10.06,74278.5,2.53,-35.23,-35.23,0,*73
1485082875.75,62350,10.06,74274.8,2.57,-35.29,-35.35,0,*72
1485082876.97,62351,10.06,74276.0,2.57,-35.29,-35.35,0,*73
1485082878.22,62352,10.06,74274.5,2.53,-35.41,-35.35,0,*7A
1485082879.43,62353,10.06,74274.8,2.53,-35.77,-35.77,0,*78
1485082880.64,62354,10.06,74276.5,2.53,-35.77,-35.77,0,*7F
1485082881.88,62355,10.06,74274.8,2.57,-35.65,-35.65,0,*7A
1485082883.13,62356,10.06,74278.5,2.53,-35.35,-35.35,0,*7D
1485082884.37,62357,10.06,74272.0,2.53,-35.53,-35.53,0,*7C
1485082885.62,62358,10.06,74272.5,2.53,-35.41,-35.53,0,*70
1485082886.86,62359,10.06,74274.0,2.57,-35.53,-35.53,0,*76
1485082888.07,62360,10.06,74272.0,2.53,-35.77,-35.89,0,*79
1485082889.29,62361,10.06,74274.8,2.57,-35.47,-35.53,0,*78
1485082890.5,62362,10.06,74274.0,2.53,-35.71,-35.77,0,*7C
1485082891.72,62363,10.06,74276.3,2.53,-35.71,-35.65,0,*7E
1485082892.94,62364,10.06,74274.5,2.57,-35.65,-35.71,0,*7D
1485082894.2,62365,10.06,74276.8,2.57,-35.83,-35.83,0,*79
1485082895.43,62366,10.06,74276.5,2.57,-35.53,-35.65,0,*7F
1485082896.65,62367,10.06,74276.0,2.53,-35.77,-35.89,0,*7E
1485082897.85,62368,10.06,74274.5,2.53,-35.77,-35.71,0,*76
1485082899.09,62369,10.06,74274.5,2.57,-35.53,-35.65,0,*70
1485082900.3,62370,10.06,74274.3,2.53,-35.71,-35.77,0,*7F
1485082901.51,62371,10.06,74274.5,2.53,-35.77,-35.77,0,*78
1485082902.71,62372,10.06,74274.8,2.53,-35.59,-35.77,0,*77
1485082903.91,62373,10.06,74278.0,2.53,-35.71,-35.71,0,*7A
1485082905.16,62374,10.06,74274.5,2.57,-35.53,-35.53,0,*79
1485082906.37,62375,10.06,74278.5,2.53,-35.53,-35.59,0,*76
1485082907.57,62376,10.06,74274.8,2.53,-35.59,-35.59,0,*7F
1485082908.81,62377,10.06,74274.5,2.57,-35.65,-35.53,0,*7F
1485082910.05,62378,10.06,74274.3,2.57,-35.53,-35.65,0,*70
1485082911.25,62379,10.06,74272.8,2.57,-35.47,-35.59,0,*7B
1485082912.49,62380,10.06,74276.3,2.53,-35.41,-35.53,0,*75
1485082913.74,62381,10.06,74274.8,2.53,-35.41,-35.35,0,*74
1485082914.99,62382,10.06,74278.5,2.53,-35.35,-35.53,0,*74
1485082916.21,62383,10.06,74274.0,2.57,-35.35,-35.47,0,*74
1485082917.43,62384,10.06,74274.0,2.53,-35.41,-35.59,0,*7B
1485082918.67,62385,10.06,74278.0,2.53,-35.53,-35.53,0,*73
1485082919.87,62386,10.06,74272.8,2.53,-35.59,-35.59,0,*70
1485082921.11,62387,10.06,74272.5,2.57,-35.53,-35.65,0,*70
1485082922.36,62388,10.06,74272.8,2.53,-35.35,-35.53,0,*7E
1485082923.6,62389,10.06,74274.3,2.53,-35.41,-35.53,0,*7C
1485082924.8,62390,10.06,74274.3,2.57,-35.17,-35.29,0,*7E
1485082926.05,62391,10.06,74274.3,2.57,-35.35,-35.35,0,*72
1485082927.29,62392,10.06,74274.0,2.57,-35.35,-35.53,0,*71
1485082928.54,62393,10.06,74272.5,2.57,-35.35,-35.53,0,*70
1485082929.74,62394,10.06,74278.5,2.57,-35.47,-35.47,0,*77
1485082930.96,62395,10.06,74272.8,2.57,-35.35,-35.47,0,*73
1485082932.19,62396,10.06,74276.5,2.59,-35.47,-35.47,0,*7B
1485082933.41,62397,10.06,74274.3,2.53,-35.17,-35.35,0,*70
1485082934.61,62398,10.06,74274.3,2.57,-35.17,-35.13,0,*7F
1485082935.81,62399,10.06,74274.8,2.57,-35.13,-35.29,0,*73
1485082937.04,62400,10.06,74274.3,2.57,-35.35,-35.47,0,*78
1485082938.28,62401,10.06,74274.8,2.53,-35.41,-35.41,0,*78
1485082939.5,62402,10.06,74274.5,2.57,-35.35,-35.47,0,*7A
1485082940.75,62403,10.06,74274.8,2.57,-35.35,-35.53,0,*7E
1485082941.99,62404,10.06,74276.0,2.57,-35.53,-35.53,0,*79
1485082943.21,62405,10.06,74274.3,2.57,-35.53,-35.47,0,*7D
1485082944.43,62406,10.06,74272.5,2.57,-35.35,-35.47,0,*7E
1485082945.63,62407,10.06,74276.0,2.57,-35.17,-35.17,0,*7A
1485082946.85,62408,10.06,74272.8,2.57,-35.35,-35.47,0,*70
1485082948.1,62409,10.06,74272.0,2.53,-35.41,-35.41,0,*70
1485082949.34,62410,10.06,74276.3,2.57,-35.35,-35.53,0,*7C
1485082950.55,62411,10.06,74274.5,2.57,-35.29,-35.29,0,*7D
1485082951.74,62412,10.06,74272.8,2.57,-35.17,-35.17,0,*7E
1485082952.96,62413,10.06,74276.0,2.57,-35.17,-35.35,0,*7F
1485082954.18,62414,10.06,74274.0,2.57,-35.17,-35.35,0,*78
1485082955.43,62415,10.06,74274.8,2.57,-35.35,-35.35,0,*79
1485082956.67,62416,10.06,74272.0,2.57,-35.35,-35.35,0,*7A
1485082957.92,62417,10.06,74274.0,2.57,-35.35,-35.35,0,*7B
1485082959.16,62418,10.06,74274.8,2.59,-35.65,-35.71,0,*7F
1485082960.41,62419,10.06,74272.5,2.59,-35.47,-35.53,0,*7E
1485082961.63,62420,10.06,74274.3,2.61,-35.35,-35.47,0,*7F
1485082962.86,62421,10.06,74272.5,2.61,-35.23,-35.29,0,*71
1485082964.11,62422,10.06,74272.8,2.59,-35.47,-35.53,0,*76
1485082965.36,62423,10.06,74276.5,2.59,-35.29,-35.35,0,*7F
1485082966.59,62424,10.06,74274.8,2.59,-35.29,-35.47,0,*7D
1485082967.86,62425,10.06,74274.0,2.59,-35.53,-35.53,0,*74
1485082969.12,62426,10.06,74274.0,2.59,-35.65,-35.65,0,*77
1485082970.39,62427,10.06,74274.5,2.59,-35.65,-35.65,0,*76
1485082971.64,62428,10.06,74272.0,2.59,-35.47,-35.53,0,*7C
1485082972.89,62429,10.06,74274.0,2.59,-35.47,-35.53,0,*7D
1485082974.14,62430,10.06,74276.5,2.59,-35.47,-35.35,0,*75
1485082975.38,62431,10.06,74274.8,2.61,-35.23,-35.41,0,*7E
1485082976.62,62432,10.06,74274.8,2.59,-35.29,-35.29,0,*72
1485082977.87,62433,10.06,74272.5,2.59,-35.29,-35.35,0,*7E
1485082979.09,62434,10.06,74268.8,2.61,-35.41,-35.47,0,*79
1485082980.35,62435,10.06,74272.0,2.59,-35.53,-35.53,0,*75
1485082981.6,62436,10.06,74276.3,2.59,-35.47,-35.65,0,*76
1485082982.85,62437,10.06,74272.5,2.59,-35.47,-35.65,0,*77
1485082984.11,62438,10.06,74272.0,2.59,-35.65,-35.65,0,*78
1485082985.36,62439,10.06,74274.0,2.59,-35.47,-35.65,0,*79
1485082986.59,62440,10.06,74274.0,2.59,-35.47,-35.47,0,*77
1485082987.85,62441,10.06,74274.0,2.59,-35.65,-35.65,0,*76
1485082989.05,62442,10.06,74276.0,2.61,-35.47,-35.59,0,*71
1485082990.27,62443,10.06,74274.3,2.61,-35.59,-35.65,0,*70
1485082991.53,62444,10.06,74276.3,2.59,-35.53,-35.65,0,*76
1485082992.78,62445,10.06,74272.0,2.59,-35.47,-35.65,0,*72
1485082994.04,62446,10.06,74272.5,2.59,-35.53,-35.65,0,*74
1485082995.28,62447,10.06,74270.3,2.57,-35.53,-35.65,0,*7B
1485082996.5,62448,10.06,74272.0,2.57,-35.65,-35.71,0,*74
1485082997.75,62449,10.06,74272.3,2.59,-35.47,-35.53,0,*7B
1485082999.0,62450,10.06,74274.3,2.59,-35.47,-35.53,0,*73
1485083000.25,62451,10.06,74272.0,2.59,-35.35,-35.47,0,*72
1485083001.49,62452,10.06,74272.8,2.59,-35.53,-35.47,0,*71
1485083002.72,62453,10.06,74274.0,2.61,-35.29,-35.41,0,*70
1485083003.96,62454,10.06,74270.8,2.59,-35.53,-35.71,0,*72
1485083005.2,62455,10.06,74272.5,2.61,-35.41,-35.41,0,*78
1485083006.45,62456,10.06,74270.3,2.59,-35.35,-35.47,0,*75
1485083007.7,62457,10.06,74274.3,2.59,-35.71,-35.83,0,*7C
1485083008.94,62458,10.06,74276.0,2.61,-35.41,-35.65,0,*73
1485083010.16,62459,10.06,74270.5,2.61,-35.41,-35.59,0,*7D
1485083011.42,62460,10.06,74272.0,2.59,-35.53,-35.65,0,*70
1485083012.65,62461,10.06,74272.8,2.59,-35.47,-35.71,0,*71
1485083013.91,62462,10.06,74272.8,2.59,-35.65,-35.65,0,*77
1485083015.15,62463,10.06,74272.0,2.59,-35.53,-35.71,0,*76
1485083016.43,62464,10.06,74272.8,2.59,-35.35,-35.53,0,*71
1485083017.67,62465,10.06,74272.8,2.59,-35.47,-35.65,0,*70
1485083018.92,62466,10.06,74274.5,2.59,-35.47,-35.65,0,*73
1485083020.17,62467,10.06,74272.5,2.59,-35.47,-35.53,0,*77
1485083021.4,62468,10.06,74274.0,2.59,-35.47,-35.47,0,*7D
1485083022.67,62469,10.06,74272.5,2.59,-35.35,-35.53,0,*7C
1485083023.92,62470,10.06,74272.8,2.59,-35.47,-35.53,0,*71
1485083025.14,62471,10.06,74272.3,2.61,-35.41,-35.47,0,*78
1485083026.36,62472,10.06,74274.0,2.59,-35.47,-35.47,0,*76
1485083027.64,62473,10.06,74272.5,2.59,-35.35,-35.53,0,*77
1485083028.88,62474,10.06,74272.0,2.59,-35.47,-35.65,0,*70
1485083030.12,62475,10.06,74270.5,2.59,-35.53,-35.71,0,*71
1485083031.34,62476,10.06,74274.3,2.57,-35.47,-35.65,0,*7C
1485083032.54,62477,10.06,74274.8,2.57,-35.47,-35.47,0,*7D
1485083033.75,62478,10.06,74272.5,2.57,-35.47,-35.47,0,*72
1485083034.95,62479,10.06,74272.8,2.57,-35.13,-35.29,0,*7A
1485083036.2,62480,10.06,74272.3,2.61,-34.95,-35.07,0,*7A
1485083037.42,62481,10.06,74272.8,2.59,-35.13,-35.17,0,*7E
1485083038.64,62482,10.06,74272.0,2.61,-35.47,-35.65,0,*72
1485083039.87,62483,10.06,74274.5,2.59,-35.29,-35.29,0,*78
1485083041.12,62484,10.06,74272.8,2.59,-35.35,-35.47,0,*7A
1485083042.36,62485,10.06,74272.8,2.59,-35.53,-35.71,0,*7E
1485083043.61,62486,10.06,74272.8,2.59,-35.47,-35.65,0,*7D
1485083044.85,62487,10.06,74268.8,2.59,-35.53,-35.71,0,*7C
1485083046.09,62488,10.06,74272.5,2.59,-35.65,-35.71,0,*76
1485083047.29,62489,10.06,74274.5,2.57,-35.71,-35.71,0,*7C
1485083048.51,62490,10.06,74272.5,2.57,-35.47,-35.65,0,*74
1485083049.78,62491,10.06,74274.3,2.59,-35.53,-35.83,0,*76
1485083051.02,62492,10.06,74274.8,2.57,-35.53,-35.65,0,*73
1485083052.24,62493,10.06,74272.5,2.57,-35.17,-35.35,0,*77
1485083053.44,62494,10.06,74272.8,2.57,-35.13,-35.29,0,*79
1485083054.64,62495,10.06,74274.0,2.57,-35.13,-35.29,0,*78
1485083055.88,62496,10.06,74272.5,2.59,-35.01,-35.13,0,*7F
1485083057.11,62497,10.06,74272.5,2.59,-35.01,-35.17,0,*7A
1485083058.33,62498,10.06,74272.5,2.57,-35.29,-35.35,0,*71
1485083059.56,62499,10.06,74274.0,2.59,-35.29,-35.29,0,*73
1485083060.79,62500,10.06,74274.5,2.59,-35.17,-35.29,0,*7F
1485083062.02,62501,10.06,74272.8,2.59,-35.29,-35.29,0,*73
1485083063.27,62502,10.06,74274.0,2.59,-35.17,-35.35,0,*70
1485083064.5,62503,10.06,74274.3,2.59,-35.13,-35.29,0,*78
1485083065.7,62504,10.06,74274.8,2.61,-35.13,-35.29,0,*74
1485083066.9,62505,10.06,74274.8,2.61,-35.29,-35.47,0,*74
1485083068.12,62506,10.06,74272.3,2.61,-35.65,-35.77,0,*7C
1485083069.36,62507,10.06,74274.0,2.59,-35.53,-35.71,0,*75
1485083070.56,62508,10.06,74270.8,2.61,-35.47,-35.59,0,*7E
1485083071.76,62509,10.06,74272.8,2.61,-35.47,-35.47,0,*70
1485083072.96,62510,10.06,74272.5,2.61,-35.47,-35.59,0,*77
1485083074.22,62511,10.06,74272.5,2.59,-35.53,-35.65,0,*77
1485083075.47,62512,10.06,74270.0,2.59,-35.47,-35.65,0,*71
1485083076.68,62513,10.06,74272.8,2.61,-35.53,-35.71,0,*7B
1485083077.93,62514,10.06,74274.0,2.59,-35.65,-35.89,0,*75
1485083079.19,62515,10.06,74274.8,2.59,-35.71,-35.83,0,*7B
1485083080.44,62516,10.06,74270.8,2.59,-35.71,-35.83,0,*78
1485083081.69,62517,10.06,74276.8,2.57,-35.65,-35.83,0,*72
1485083082.89,62518,10.06,74272.0,2.57,-35.47,-35.47,0,*75
1485083084.16,62519,10.06,74272.5,2.59,-35.53,-35.53,0,*7A
1485083085.41,62520,10.06,74274.0,2.59,-35.47,-35.53,0,*75
1485083086.63,62521,10.06,74274.3,2.59,-35.47,-35.47,0,*71
1485083087.88,62522,10.06,74270.5,2.59,-35.47,-35.65,0,*72
1485083089.13,62523,10.06,74272.5,2.59,-35.47,-35.65,0,*73
1485083090.37,62524,10.06,74272.5,2.59,-35.47,-35.65,0,*74
1485083091.64,62525,10.06,74272.0,2.59,-35.65,-35.65,0,*75
1485083092.86,62526,10.06,74274.0,2.59,-35.71,-35.71,0,*76
1485083094.11,62527,10.06,74270.3,2.59,-35.65,-35.71,0,*72
1485083095.37,62528,10.06,74268.0,2.59,-35.53,-35.65,0,*7D
1485083096.62,62529,10.06,74270.0,2.59,-35.47,-35.65,0,*79
1485083097.86,62530,10.06,74268.8,2.59,-35.53,-35.71,0,*71
1485083099.12,62531,10.06,74270.8,2.59,-35.83,-35.89,0,*7A
1485083100.36,62532,10.06,74272.3,2.59,-35.65,-35.71,0,*76
1485083101.56,62533,10.06,74272.3,2.57,-35.71,-35.71,0,*7C
1485083102.81,62534,10.06,74270.3,2.59,-35.47,-35.53,0,*70
1485083104.06,62535,10.06,74272.0,2.57,-35.65,-35.83,0,*72
1485083105.3,62536,10.06,74272.3,2.59,-35.53,-35.71,0,*77
1485083106.55,62537,10.06,74274.0,2.59,-35.71,-35.83,0,*7B
1485083107.77,62538,10.06,74272.3,2.57,-35.47,-35.53,0,*72
1485083108.99,62539,10.06,74276.5,2.57,-35.53,-35.71,0,*76
1485083110.23,62540,10.06,74272.8,2.57,-35.53,-35.83,0,*75
1485083111.46,62541,10.06,74272.8,2.57,-35.47,-35.65,0,*79
1485083112.67,62542,10.06,74272.3,2.57,-35.53,-35.71,0,*7A
1485083113.87,62543,10.06,74274.0,2.57,-35.71,-35.71,0,*7B
1485083115.12,62544,10.06,74272.8,2.57,-35.65,-35.83,0,*74
1485083116.36,62545,10.06,74274.3,2.59,-35.65,-35.71,0,*76
1485083117.57,62546,10.06,74272.0,2.57,-35.53,-35.71,0,*7E
1485083118.81,62547,10.06,74272.3,2.57,-35.53,-35.53,0,*7F
1485083120.03,62548,10.06,74274.0,2.57,-35.53,-35.71,0,*70
1485083121.25,62549,10.06,74274.5,2.57,-35.35,-35.47,0,*74
1485083122.5,62550,10.06,74274.8,2.57,-35.35,-35.53,0,*79
1485083123.71,62551,10.06,74270.3,2.53,-35.53,-35.59,0,*76
1485083124.94,62552,10.06,74268.0,2.57,-35.35,-35.47,0,*7E
1485083126.18,62553,10.06,74274.0,2.53,-35.41,-35.53,0,*7D
1485083127.4,62554,10.06,74268.8,2.57,-35.65,-35.71,0,*78
1485083128.64,62555,10.06,74272.0,2.57,-35.53,-35.65,0,*79
1485083129.86,62556,10.06,74274.0,2.57,-35.47,-35.53,0,*7A
1485083131.09,62557,10.06,74274.5,2.57,-35.47,-35.65,0,*7E
1485083132.31,62558,10.06,74272.0,2.57,-35.47,-35.65,0,*71
1485083133.53,62559,10.06,74272.8,2.57,-35.29,-35.53,0,*7D
1485083134.75,62560,10.06,74272.8,2.57,-35.53,-35.71,0,*7A
1485083135.97,62561,10.06,74272.0,2.57,-35.47,-35.53,0,*7E
1485083137.24,62562,10.06,74270.3,2.59,-35.35,-35.53,0,*76
1485083138.49,62563,10.06,74274.3,2.59,-35.35,-35.47,0,*72
1485083139.73,62564,10.06,74274.8,2.57,-35.53,-35.65,0,*7B
1485083140.95,62565,10.06,74274.0,2.57,-35.53,-35.71,0,*7F
1485083142.16,62566,10.06,74274.5,2.57,-35.65,-35.71,0,*79
1485083143.4,62567,10.06,74272.3,2.57,-35.65,-35.65,0,*7D
1485083144.66,62568,10.06,74274.8,2.59,-35.71,-35.83,0,*71
1485083145.89,62569,10.06,74272.0,2.59,-35.89,-36.01,0,*7E
1485083147.1,62570,10.06,74272.8,2.57,-35.89,-36.01,0,*78
1485083148.31,62571,10.06,74270.5,2.57,-35.65,-35.71,0,*7F
1485083149.54,62572,10.06,74274.3,2.57,-35.47,-35.65,0,*79
1485083150.76,62573,10.06,74274.8,2.57,-35.71,-35.83,0,*75
1485083151.99,62574,10.06,74272.5,2.57,-35.65,-35.89,0,*7D
1485083153.22,62575,10.06,74276.0,2.57,-35.71,-35.83,0,*73
1485083154.47,62576,10.06,74272.3,2.57,-35.83,-35.83,0,*7D
1485083155.72,62577,10.06,74272.5,2.57,-35.65,-35.83,0,*74
1485083156.92,62578,10.06,74274.0,2.57,-35.71,-35.71,0,*73
1485083158.12,62579,10.06,74274.8,2.57,-35.71,-35.71,0,*72
1485083159.34,62580,10.06,74272.0,2.57,-35.71,-35.83,0,*79
1485083160.56,62581,10.06,74272.3,2.57,-35.53,-35.71,0,*75
1485083161.81,62582,10.06,74270.3,2.57,-35.83,-35.83,0,*76
1485083163.01,62583,10.06,74274.3,2.53,-35.59,-35.71,0,*79
1485083164.25,62584,10.06,74272.3,2.57,-35.53,-35.53,0,*70
1485083165.49,62585,10.06,74272.5,2.57,-35.83,-35.89,0,*7B
1485083166.73,62586,10.06,74272.5,2.57,-35.65,-35.83,0,*7A
1485083167.97,62587,10.06,74270.5,2.57,-35.53,-35.65,0,*76
1485083169.22,62588,10.06,74272.3,2.57,-35.35,-35.35,0,*7C
1485083170.42,62589,10.06,74270.5,2.57,-35.29,-35.47,0,*75
1485083171.67,62590,10.06,74272.0,2.59,-35.47,-35.53,0,*7E
1485083172.89,62591,10.06,74272.5,2.57,-35.65,-35.71,0,*71
1485083174.14,62592,10.06,74274.8,2.57,-35.65,-35.83,0,*7F
1485083175.36,62593,10.06,74272.3,2.57,-35.47,-35.65,0,*76
1485083176.6,62594,10.06,74270.0,2.57,-35.53,-35.83,0,*7C
1485083177.82,62595,10.06,74274.0,2.57,-35.53,-35.71,0,*70
1485083179.06,62596,10.06,74272.0,2.57,-35.53,-35.65,0,*76
1485083180.27,62597,10.06,74272.3,2.53,-35.53,-35.71,0,*76
1485083181.49,62598,10.06,74272.5,2.57,-35.47,-35.65,0,*7D
1485083182.72,62599,10.06,74272.0,2.57,-35.71,-35.83,0,*71
1485083183.93,62600,10.06,74274.3,2.53,-35.59,-35.77,0,*77
1485083185.16,62601,10.06,74272.3,2.57,-35.53,-35.65,0,*7B
1485083186.41,62602,10.06,74272.0,2.59,-35.47,-35.65,0,*73
1485083187.63,62603,10.06,74274.0,2.57,-35.53,-35.71,0,*7C
1485083188.88,62604,10.06,74274.8,2.59,-35.71,-35.83,0,*78
1485083190.11,62605,10.06,74272.8,2.57,-35.71,-35.83,0,*77
1485083191.31,62606,10.06,74272.5,2.57,-35.59,-35.77,0,*75
1485083192.52,62607,10.13,74274.8,2.53,-35.71,-35.77,0,*7A
1485083193.73,62608,10.06,74272.5,2.57,-35.89,-35.89,0,*77
1485083194.98,62609,10.06,74272.0,2.57,-35.83,-35.83,0,*76
1485083196.19,62610,10.06,74272.0,2.57,-35.71,-35.89,0,*79
1485083197.43,62611,10.06,74272.5,2.57,-35.53,-35.53,0,*7F
1485083198.65,62612,10.06,74272.0,2.57,-35.53,-35.71,0,*7C
1485083199.9,62613,10.06,74268.5,2.57,-35.83,-35.83,0,*7D
1485083201.13,62614,10.06,74274.0,2.57,-35.71,-35.83,0,*77
1485083202.35,62615,10.06,74274.5,2.57,-35.65,-35.71,0,*7E
1485083203.59,62616,10.06,74268.5,2.57,-35.65,-35.65,0,*78
1485083204.81,62617,10.06,74270.0,2.57,-35.35,-35.47,0,*7C
1485083206.01,62618,10.06,74272.5,2.57,-35.71,-35.71,0,*76
1485083207.25,62619,10.06,74274.0,2.57,-35.65,-35.65,0,*77
1485083208.49,62620,10.06,74272.8,2.57,-35.53,-35.65,0,*78
1485083209.7,62621,10.06,74274.5,2.57,-35.65,-35.71,0,*79
1485083210.94,62622,10.06,74270.3,2.57,-35.53,-35.65,0,*7A
1485083212.17,62623,10.06,74274.0,2.57,-35.35,-35.47,0,*7B
1485083213.39,62624,10.06,74270.5,2.57,-35.29,-35.35,0,*74
1485083214.61,62625,10.06,74272.3,2.57,-35.47,-35.35,0,*7D
1485083215.84,62626,10.06,74272.5,2.57,-35.35,-35.47,0,*7E
1485083217.08,62627,10.06,74274.0,2.57,-35.53,-35.65,0,*7F
1485083218.32,62628,10.06,74268.0,2.57,-35.35,-35.53,0,*75
1485083219.59,62629,10.06,74272.5,2.59,-35.65,-35.65,0,*7A
1485083220.82,62630,10.06,74270.8,2.59,-35.29,-35.47,0,*7A
1485083222.04,62631,10.06,74274.8,2.59,-35.17,-35.47,0,*76
1485083223.29,62632,10.06,74272.0,2.59,-35.17,-35.35,0,*70
1485083224.56,62633,10.06,74270.3,2.59,-35.35,-35.35,0,*71
1485083225.81,62634,10.06,74272.0,2.59,-35.17,-35.35,0,*76
1485083227.03,62635,10.06,74272.0,2.61,-35.29,-35.35,0,*71
1485083228.27,62636,10.06,74272.5,2.61,-35.41,-35.41,0,*7F
1485083229.5,62637,10.06,74274.3,2.61,-35.47,-35.65,0,*7E
1485083230.75,62638,10.06,74274.5,2.59,-35.71,-35.83,0,*77
1485083231.99,62639,10.06,74270.3,2.61,-35.41,-35.65,0,*76
1485083233.23,62640,10.06,74270.5,2.59,-35.65,-35.71,0,*70
1485083234.47,62641,10.06,74270.5,2.61,-35.65,-35.65,0,*7F
1485083235.73,62642,10.06,74272.5,2.61,-35.83,-35.83,0,*7C
1485083236.93,62643,10.06,74272.5,2.61,-35.59,-35.77,0,*71
1485083238.18,62644,10.06,74272.3,2.59,-35.47,-35.53,0,*74
1485083239.43,62645,10.06,74274.3,2.59,-35.47,-35.53,0,*75
1485083240.63,62646,10.06,74268.0,2.61,-35.29,-35.47,0,*70
1485083241.85,62647,10.06,74272.8,2.61,-35.59,-35.65,0,*76
1485083243.07,62648,10.06,74270.5,2.59,-35.47,-35.47,0,*7D
1485083244.27,62649,10.06,74270.3,2.61,-35.29,-35.59,0,*70
1485083245.52,62650,10.06,74268.3,2.61,-35.23,-35.41,0,*7B
1485083246.72,62651,10.06,74268.8,2.61,-35.29,-35.47,0,*76
1485083248.0,62652,10.06,74270.5,2.59,-35.35,-35.53,0,*76
1485083249.22,62653,10.06,74272.3,2.61,-35.47,-35.65,0,*7C
1485083250.46,62654,10.06,74270.0,2.61,-35.65,-35.65,0,*7B
1485083251.65,62655,10.06,74268.0,2.61,-35.59,-35.59,0,*7A
1485083252.87,62656,10.06,74270.3,2.61,-35.59,-35.65,0,*76
1485083254.08,62657,10.06,74270.5,2.61,-35.59,-35.65,0,*77
1485083255.34,62658,10.06,74268.3,2.61,-35.83,-35.83,0,*77
1485083256.55,62659,10.06,74272.3,2.61,-35.77,-35.77,0,*76
1485083257.75,62660,10.06,74270.0,2.61,-35.59,-35.77,0,*70
1485083258.94,62661,10.06,74272.0,2.61,-35.59,-35.59,0,*7D
1485083260.17,62662,10.06,74270.0,2.61,-35.65,-35.77,0,*7D
1485083261.4,62663,10.06,74266.8,2.61,-35.77,-35.95,0,*73
1485083262.63,62664,10.06,74268.8,2.63,-35.77,-35.77,0,*7A
1485083263.89,62665,10.06,74268.0,2.59,-35.71,-35.83,0,*7F
1485083265.11,62666,10.06,74270.8,2.61,-35.59,-35.65,0,*75
1485083266.31,62667,10.06,74268.3,2.61,-35.59,-35.77,0,*77
1485083267.56,62668,10.06,74272.8,2.61,-35.83,-35.83,0,*74
1485083268.8,62669,10.06,74274.3,2.59,-35.53,-35.71,0,*7E
1485083270.07,62670,10.06,74268.3,2.63,-35.41,-35.65,0,*79
1485083271.27,62671,10.06,74268.5,2.61,-35.29,-35.47,0,*74
1485083272.52,62672,10.06,74270.5,2.61,-35.23,-35.41,0,*7B
1485083273.71,62673,10.06,74268.5,2.61,-35.47,-35.47,0,*7E
1485083274.98,62674,10.06,74272.3,2.63,-35.41,-35.41,0,*7B
1485083276.2,62675,10.06,74270.3,2.63,-35.47,-35.47,0,*7A
1485083277.45,62676,10.06,74270.3,2.65,-35.41,-35.41,0,*7F
1485083278.69,62677,10.06,74270.8,2.63,-35.41,-35.47,0,*7E
1485083279.94,62678,10.06,74270.3,2.63,-35.47,-35.41,0,*71
1485083281.18,62679,10.06,74268.5,2.63,-35.41,-35.47,0,*70
1485083282.41,62680,10.06,74270.5,2.63,-35.47,-35.47,0,*70
1485083283.63,62681,10.06,74268.5,2.63,-35.29,-35.47,0,*79
1485083284.88,62682,10.06,74268.8,2.65,-35.41,-35.53,0,*77
1485083286.12,62683,10.06,74268.8,2.63,-35.41,-35.47,0,*75
1485083287.39,62684,10.06,74270.5,2.63,-35.41,-35.41,0,*74
1485083288.63,62685,10.06,74270.0,2.65,-35.41,-35.53,0,*70
1485083289.85,62686,10.06,74270.8,2.65,-35.53,-35.59,0,*7A
1485083291.1,62687,10.06,74270.5,2.63,-35.65,-35.77,0,*74
1485083292.35,62688,10.06,74268.5,2.63,-35.65,-35.77,0,*7B
1485083293.55,62689,10.06,74268.0,2.65,-35.71,-35.71,0,*7F
1485083294.75,62690,10.06,74270.5,2.65,-35.59,-35.89,0,*7A
1485083295.95,62691,10.06,74268.3,2.65,-35.71,-35.71,0,*76
1485083297.2,62692,10.06,74270.3,2.63,-35.47,-35.65,0,*73
1485083298.41,62693,10.06,74268.0,2.65,-35.53,-35.59,0,*7E
1485083299.66,62694,10.06,74270.3,2.65,-35.35,-35.53,0,*73
1485083300.88,62695,10.06,74270.8,2.65,-35.41,-35.59,0,*7B